,,,PA_Meas_PMT16A,,PR_Meas_QMR101_102,,RH_Meas_QMH101,,SR_Meas_QMS101,,TA_Meas_QMH101,,GenWind,,GenWind,
date,time,status,PA,status,PR,status,RH,status,SR,status,TA,status,DirAvg,status,SpdAvg,
2011-10-21, 00:00:04,VALID,1002.15,VALID,0,VALID,91.989,VALID,0.0815089,VALID,25.121,VALID,358,VALID,0.45625,
2011-10-21, 00:01:04,VALID,1002.12,VALID,0,VALID,91.6381,VALID,0.0815089,VALID,25.1618,VALID,25,VALID,0.409766,
2011-10-21, 00:02:04,VALID,1002.13,VALID,0,VALID,91.6076,VALID,0,VALID,25.1618,VALID,25,VALID,0.312891,
2011-10-21, 00:03:04,VALID,1002.13,VALID,0,VALID,91.6305,VALID,0,VALID,25.121,VALID,25,VALID,0.228906,
2011-10-21, 00:04:04,VALID,1002.11,VALID,0,VALID,91.5466,VALID,0,VALID,25.1034,VALID,25,VALID,0.210547,
2011-10-21, 00:05:04,VALID,1002.08,VALID,0,VALID,91.6686,VALID,0.0815089,VALID,25.0839,VALID,25,VALID,0.375,
2011-10-21, 00:06:04,VALID,1002.06,VALID,0,VALID,92.195,VALID,0,VALID,25.0839,VALID,25,VALID,0.169141,
2011-10-21, 00:07:04,VALID,1002.07,VALID,0,VALID,92.1111,VALID,0,VALID,25.1015,VALID,25,VALID,0.430078,
2011-10-21, 00:08:04,VALID,1002.07,VALID,0,VALID,92.1492,VALID,0,VALID,25.2027,VALID,25,VALID,0.382031,
2011-10-21, 00:09:04,VALID,1002.07,VALID,0,VALID,91.5313,VALID,0,VALID,25.2416,VALID,22,VALID,0.574609,
2011-10-21, 00:10:04,VALID,1002.07,VALID,0,VALID,91.4016,VALID,0,VALID,25.2007,VALID,22,VALID,0.324609,
2011-10-21, 00:11:04,VALID,1002.1,VALID,0,VALID,91.4092,VALID,0,VALID,25.1794,VALID,22,VALID,0.198047,
2011-10-21, 00:12:04,VALID,1002.08,VALID,0,VALID,91.3177,VALID,0,VALID,25.1618,VALID,22,VALID,0.341797,
2011-10-21, 00:13:04,VALID,1002.06,VALID,0,VALID,91.6229,VALID,0,VALID,25.1229,VALID,22,VALID,0.100781,
2011-10-21, 00:14:04,VALID,1002.09,VALID,0,VALID,91.8899,VALID,0,VALID,25.1034,VALID,22,VALID,0.121094,
2011-10-21, 00:15:04,VALID,1002.07,VALID,0,VALID,91.9585,VALID,0.0815089,VALID,25.0644,VALID,22,VALID,0.123438,
2011-10-21, 00:16:04,VALID,1002.07,VALID,0,VALID,92.3705,VALID,0,VALID,25.0644,VALID,22,VALID,0.203516,
2011-10-21, 00:17:04,VALID,1002.07,VALID,0,VALID,92.4849,VALID,0,VALID,25.1248,VALID,22,VALID,0.0804688,
2011-10-21, 00:18:04,VALID,1002.03,VALID,0,VALID,92.2027,VALID,0.0815089,VALID,25.0839,VALID,22,VALID,0.294141,
2011-10-21, 00:19:04,VALID,1002,VALID,0,VALID,92.3857,VALID,0,VALID,25.1248,VALID,22,VALID,0.356641,
2011-10-21, 00:20:04,VALID,1001.97,VALID,0,VALID,92.2866,VALID,0,VALID,25.1034,VALID,22,VALID,0.260938,
2011-10-21, 00:21:04,VALID,1001.95,VALID,0,VALID,92.4239,VALID,0,VALID,25.1442,VALID,22,VALID,0.276953,
2011-10-21, 00:22:04,VALID,1001.92,VALID,0,VALID,92.2103,VALID,0,VALID,25.1423,VALID,20,VALID,0.607813,
2011-10-21, 00:23:04,VALID,1001.91,VALID,0,VALID,92.1569,VALID,0,VALID,25.1442,VALID,20,VALID,0.608203,
2011-10-21, 00:24:04,VALID,1001.89,VALID,0,VALID,92.2484,VALID,0,VALID,25.1248,VALID,20,VALID,0.241016,
2011-10-21, 00:25:04,VALID,1001.88,VALID,0,VALID,92.3095,VALID,0,VALID,25.1053,VALID,20,VALID,0.157813,
2011-10-21, 00:26:04,VALID,1001.86,VALID,0,VALID,92.4849,VALID,0,VALID,25.0644,VALID,20,VALID,0.248047,
2011-10-21, 00:27:04,VALID,1001.85,VALID,0,VALID,92.5154,VALID,0,VALID,25.0644,VALID,20,VALID,0.0363281,
2011-10-21, 00:28:04,VALID,1001.87,VALID,0,VALID,92.6756,VALID,0,VALID,25.0644,VALID,20,VALID,0.251563,
2011-10-21, 00:29:04,VALID,1001.84,VALID,0,VALID,92.7977,VALID,0,VALID,25.0644,VALID,20,VALID,0.335156,
2011-10-21, 00:30:04,VALID,1001.84,VALID,0,VALID,92.4391,VALID,0,VALID,25.0663,VALID,20,VALID,0.425391,
2011-10-21, 00:31:04,VALID,1001.83,VALID,0,VALID,92.5307,VALID,0,VALID,25.0255,VALID,20,VALID,0.517969,
2011-10-21, 00:32:04,VALID,1001.83,VALID,0,VALID,92.5078,VALID,0,VALID,25.0255,VALID,20,VALID,0.334766,
2011-10-21, 00:33:04,VALID,1001.82,VALID,0,VALID,92.6222,VALID,0,VALID,25.006,VALID,20,VALID,0.00351562,
2011-10-21, 00:34:04,VALID,1001.78,VALID,0,VALID,92.7596,VALID,0,VALID,24.9866,VALID,20,VALID,0.365625,
2011-10-21, 00:35:04,VALID,1001.77,VALID,0,VALID,92.9274,VALID,0,VALID,24.9885,VALID,20,VALID,0.154297,
2011-10-21, 00:36:04,VALID,1001.77,VALID,0,VALID,92.9274,VALID,0,VALID,24.9671,VALID,20,VALID,0.241406,
2011-10-21, 00:37:04,VALID,1001.75,VALID,0,VALID,92.935,VALID,0,VALID,24.9671,VALID,20,VALID,0.266797,
2011-10-21, 00:38:04,VALID,1001.74,VALID,0,VALID,93.2478,VALID,0,VALID,24.969,VALID,20,VALID,0.596875,
2011-10-21, 00:39:04,VALID,1001.73,VALID,0,VALID,93.1868,VALID,0,VALID,24.9671,VALID,20,VALID,0.259766,
2011-10-21, 00:40:04,VALID,1001.73,VALID,0,VALID,93.202,VALID,0,VALID,24.9671,VALID,20,VALID,0.478516,
2011-10-21, 00:41:04,VALID,1001.74,VALID,0,VALID,93.2631,VALID,0,VALID,24.9866,VALID,20,VALID,0.422656,
2011-10-21, 00:42:04,VALID,1001.72,VALID,0,VALID,93.1563,VALID,0,VALID,24.9671,VALID,20,VALID,0.350781,
2011-10-21, 00:43:04,VALID,1001.67,VALID,0,VALID,93.1563,VALID,0,VALID,24.9671,VALID,20,VALID,0.770703,
2011-10-21, 00:44:04,VALID,1001.7,VALID,0,VALID,93.1639,VALID,0,VALID,24.9282,VALID,20,VALID,0.34375,
2011-10-21, 00:45:04,VALID,1001.67,VALID,0,VALID,93.3622,VALID,0,VALID,24.9282,VALID,20,VALID,0.361328,
2011-10-21, 00:46:04,VALID,1001.67,VALID,0,VALID,93.4309,VALID,0,VALID,24.9282,VALID,20,VALID,0.132031,
2011-10-21, 00:47:04,VALID,1001.64,VALID,0,VALID,93.6064,VALID,0,VALID,24.9282,VALID,20,VALID,0.422266,
2011-10-21, 00:48:04,VALID,1001.68,VALID,0,VALID,93.5606,VALID,0,VALID,24.9476,VALID,20,VALID,0.381641,
2011-10-21, 00:49:04,VALID,1001.68,VALID,0,VALID,93.5148,VALID,0,VALID,24.969,VALID,20,VALID,0.544922,
2011-10-21, 00:50:04,VALID,1001.59,VALID,0,VALID,93.6598,VALID,0,VALID,24.9671,VALID,20,VALID,0.203906,
2011-10-21, 00:51:04,VALID,1001.55,VALID,0,VALID,93.7666,VALID,0,VALID,24.9866,VALID,20,VALID,0.288281,
2011-10-21, 00:52:04,VALID,1001.5,VALID,0,VALID,93.6369,VALID,0,VALID,25.045,VALID,20,VALID,0.351563,
2011-10-21, 00:53:04,VALID,1001.51,VALID,0,VALID,93.4233,VALID,0,VALID,25.1034,VALID,16,VALID,0.871875,
2011-10-21, 00:54:04,VALID,1001.55,VALID,0,VALID,93.0647,VALID,0,VALID,25.2221,VALID,21,VALID,0.605078,
2011-10-21, 00:55:04,VALID,1001.56,VALID,0,VALID,92.5841,VALID,0,VALID,25.2592,VALID,21,VALID,0.450391,
2011-10-21, 00:56:04,VALID,1001.55,VALID,0,VALID,92.2484,VALID,0,VALID,25.2981,VALID,21,VALID,0.475391,
2011-10-21, 00:57:04,VALID,1001.54,VALID,0,VALID,92.0653,VALID,0,VALID,25.337,VALID,21,VALID,0.593359,
2011-10-21, 00:58:04,VALID,1001.49,VALID,0,VALID,91.9509,VALID,0,VALID,25.3779,VALID,20,VALID,0.442969,
2011-10-21, 00:59:04,VALID,1001.52,VALID,0,VALID,91.5695,VALID,0,VALID,25.3955,VALID,10,VALID,0.619922,
2011-10-21, 01:00:04,VALID,1001.52,VALID,0,VALID,90.9134,VALID,0,VALID,25.5318,VALID,31,VALID,0.479688,
2011-10-21, 01:01:04,VALID,1001.49,VALID,0,VALID,90.3183,VALID,0,VALID,25.6292,VALID,30,VALID,0.623047,
2011-10-21, 01:02:04,VALID,1001.51,VALID,0,VALID,89.8377,VALID,0,VALID,25.7265,VALID,28,VALID,0.727344,
2011-10-21, 01:03:04,VALID,1001.53,VALID,0,VALID,89.502,VALID,0,VALID,25.7869,VALID,29,VALID,0.145703,
2011-10-21, 01:04:04,VALID,1001.53,VALID,0,VALID,89.3113,VALID,0,VALID,25.785,VALID,29,VALID,0.385156,
2011-10-21, 01:05:04,VALID,1001.5,VALID,0,VALID,89.235,VALID,0,VALID,25.8044,VALID,29,VALID,0.114453,
2011-10-21, 01:06:04,VALID,1001.51,VALID,0,VALID,89.113,VALID,0,VALID,25.8453,VALID,29,VALID,0.0148437,
2011-10-21, 01:07:04,VALID,1001.55,VALID,0,VALID,88.9985,VALID,0,VALID,25.8239,VALID,29,VALID,0.289063,
2011-10-21, 01:08:04,VALID,1001.54,VALID,0,VALID,88.8688,VALID,0,VALID,25.8239,VALID,28,VALID,0.510156,
2011-10-21, 01:09:04,VALID,1001.56,VALID,0,VALID,88.5789,VALID,0,VALID,25.9018,VALID,49,VALID,0.403125,
2011-10-21, 01:10:04,VALID,1001.53,VALID,0,VALID,88.6705,VALID,0,VALID,25.9018,VALID,44,VALID,0.467187,
2011-10-21, 01:11:04,VALID,1001.48,VALID,0,VALID,88.8993,VALID,0,VALID,25.8434,VALID,42,VALID,0.53125,
2011-10-21, 01:12:04,VALID,1001.43,VALID,0,VALID,89.0061,VALID,0,VALID,25.785,VALID,21,VALID,0.600391,
2011-10-21, 01:13:04,VALID,1001.43,VALID,0,VALID,89.1053,VALID,0,VALID,25.8044,VALID,3,VALID,0.534375,
2011-10-21, 01:14:04,VALID,1001.43,VALID,0,VALID,89.029,VALID,0,VALID,25.8044,VALID,9,VALID,0.922656,
2011-10-21, 01:15:04,VALID,1001.44,VALID,0,VALID,88.7162,VALID,0,VALID,25.8453,VALID,25,VALID,1.07344,
2011-10-21, 01:16:04,VALID,1001.41,VALID,0,VALID,88.5789,VALID,0,VALID,25.9038,VALID,29,VALID,0.664453,
2011-10-21, 01:17:04,VALID,1001.41,VALID,0,VALID,88.5026,VALID,0,VALID,25.8823,VALID,12,VALID,0.844531,
2011-10-21, 01:18:04,VALID,1001.38,VALID,0,VALID,88.2585,VALID,0,VALID,25.8823,VALID,4,VALID,0.884375,
2011-10-21, 01:19:04,VALID,1001.41,VALID,0,VALID,87.7398,VALID,0,VALID,25.9602,VALID,9,VALID,0.667969,
2011-10-21, 01:20:04,VALID,1001.4,VALID,0,VALID,87.8084,VALID,0,VALID,26.0187,VALID,12,VALID,0.331641,
2011-10-21, 01:21:04,VALID,1001.4,VALID,0,VALID,87.6787,VALID,0,VALID,25.9972,VALID,53,VALID,0.568359,
2011-10-21, 01:22:04,VALID,1001.41,VALID,0,VALID,87.7779,VALID,0,VALID,26.0206,VALID,54,VALID,0.369531,
2011-10-21, 01:23:04,VALID,1001.39,VALID,0,VALID,87.7779,VALID,0,VALID,25.9602,VALID,16,VALID,0.658984,
2011-10-21, 01:24:04,VALID,1001.38,VALID,0,VALID,87.9991,VALID,0,VALID,25.9427,VALID,10,VALID,0.684766,
2011-10-21, 01:25:04,VALID,1001.36,VALID,0,VALID,87.5795,VALID,0,VALID,25.9408,VALID,14,VALID,1.31641,
2011-10-21, 01:26:04,VALID,1001.36,VALID,0,VALID,87.4956,VALID,0,VALID,25.9992,VALID,3,VALID,0.630469,
2011-10-21, 01:27:04,VALID,1001.38,VALID,0,VALID,87.7932,VALID,0.0815089,VALID,25.9992,VALID,4,VALID,0.803125,
2011-10-21, 01:28:04,VALID,1001.36,VALID,0,VALID,88.0373,VALID,0,VALID,25.9622,VALID,359,VALID,0.937891,
2011-10-21, 01:29:04,VALID,1001.37,VALID,0,VALID,88.0296,VALID,0,VALID,25.9408,VALID,9,VALID,0.490625,
2011-10-21, 01:30:04,VALID,1001.35,VALID,0,VALID,87.8694,VALID,0,VALID,25.9018,VALID,10,VALID,0.5,
2011-10-21, 01:31:04,VALID,1001.37,VALID,0,VALID,87.8237,VALID,0,VALID,25.9038,VALID,15,VALID,1.17383,
2011-10-21, 01:32:04,VALID,1001.36,VALID,0,VALID,87.4804,VALID,0,VALID,25.9797,VALID,25,VALID,0.853906,
2011-10-21, 01:33:04,VALID,1001.34,VALID,0,VALID,86.9082,VALID,0,VALID,26.0401,VALID,7,VALID,0.3,
2011-10-21, 01:34:04,VALID,1001.36,VALID,0,VALID,86.9158,VALID,0,VALID,26.0771,VALID,7,VALID,0.227734,
2011-10-21, 01:35:04,VALID,1001.33,VALID,0,VALID,86.6336,VALID,0,VALID,26.0771,VALID,7,VALID,0.348828,
2011-10-21, 01:36:04,VALID,1001.36,VALID,0,VALID,86.7633,VALID,0,VALID,26.0966,VALID,7,VALID,0.404687,
2011-10-21, 01:37:04,VALID,1001.39,VALID,0,VALID,86.6793,VALID,0,VALID,26.0771,VALID,7,VALID,0.814844,
2011-10-21, 01:38:04,VALID,1001.39,VALID,0,VALID,86.7327,VALID,0,VALID,26.0771,VALID,9,VALID,0.73125,
2011-10-21, 01:39:04,VALID,1001.38,VALID,0,VALID,86.8472,VALID,0,VALID,26.0985,VALID,4,VALID,0.794531,
2011-10-21, 01:40:04,VALID,1001.39,VALID,0,VALID,87.1523,VALID,0,VALID,26.0791,VALID,5,VALID,0.710547,
2011-10-21, 01:41:04,VALID,1001.36,VALID,0,VALID,87.4422,VALID,0,VALID,25.9602,VALID,16,VALID,0.579687,
2011-10-21, 01:42:04,VALID,1001.32,VALID,0,VALID,87.694,VALID,0.0815089,VALID,25.9018,VALID,350,VALID,0.719141,
2011-10-21, 01:43:04,VALID,1001.33,VALID,0,VALID,87.9686,VALID,0,VALID,25.9038,VALID,356,VALID,0.592578,
2011-10-21, 01:44:04,VALID,1001.31,VALID,0,VALID,88.2127,VALID,0,VALID,25.8434,VALID,9,VALID,0.660937,
2011-10-21, 01:45:04,VALID,1001.3,VALID,0,VALID,88.3577,VALID,0,VALID,25.8044,VALID,352,VALID,0.812109,
2011-10-21, 01:46:04,VALID,1001.27,VALID,0,VALID,88.2967,VALID,0,VALID,25.8259,VALID,11,VALID,0.576563,
2011-10-21, 01:47:04,VALID,1001.25,VALID,0,VALID,88.1746,VALID,0,VALID,25.8434,VALID,7,VALID,0.813672,
2011-10-21, 01:48:04,VALID,1001.26,VALID,0,VALID,87.8389,VALID,0,VALID,25.9018,VALID,23,VALID,1.14492,
2011-10-21, 01:49:04,VALID,1001.26,VALID,0,VALID,87.4956,VALID,0,VALID,25.9583,VALID,20,VALID,0.779297,
2011-10-21, 01:50:04,VALID,1001.25,VALID,0,VALID,87.1447,VALID,0.0815089,VALID,26.0187,VALID,27,VALID,0.853906,
2011-10-21, 01:51:04,VALID,1001.25,VALID,0,VALID,86.9998,VALID,0.0815089,VALID,26.0771,VALID,345,VALID,0.730859,
2011-10-21, 01:52:04,VALID,1001.25,VALID,0,VALID,86.9235,VALID,0,VALID,26.0791,VALID,341,VALID,0.788281,
2011-10-21, 01:53:04,VALID,1001.22,VALID,0,VALID,87.2134,VALID,0.0815089,VALID,26.0381,VALID,12,VALID,0.914453,
2011-10-21, 01:54:04,VALID,1001.19,VALID,0,VALID,87.3888,VALID,0,VALID,25.9797,VALID,347,VALID,0.369922,
2011-10-21, 01:55:04,VALID,1001.18,VALID,0,VALID,87.4346,VALID,0,VALID,25.9388,VALID,356,VALID,0.875391,
2011-10-21, 01:56:04,VALID,1001.17,VALID,0,VALID,87.4346,VALID,0,VALID,25.9408,VALID,344,VALID,1.08828,
2011-10-21, 01:57:04,VALID,1001.18,VALID,0,VALID,87.7779,VALID,0,VALID,25.9018,VALID,349,VALID,1.30781,
2011-10-21, 01:58:04,VALID,1001.19,VALID,0,VALID,88.022,VALID,0.0815089,VALID,25.8629,VALID,8,VALID,0.802734,
2011-10-21, 01:59:04,VALID,1001.16,VALID,0,VALID,87.9381,VALID,0,VALID,25.8434,VALID,359,VALID,0.934766,
2011-10-21, 02:00:04,VALID,1001.18,VALID,0,VALID,88.0449,VALID,0,VALID,25.8239,VALID,359,VALID,0.464063,
2011-10-21, 02:01:04,VALID,1001.2,VALID,0,VALID,88.1746,VALID,0,VALID,25.8064,VALID,359,VALID,0.790234,
2011-10-21, 02:02:04,VALID,1001.18,VALID,0,VALID,88.2356,VALID,0,VALID,25.7869,VALID,338,VALID,0.784766,
2011-10-21, 02:03:04,VALID,1001.2,VALID,0,VALID,88.3882,VALID,0,VALID,25.746,VALID,339,VALID,0.255469,
2011-10-21, 02:04:04,VALID,1001.19,VALID,0,VALID,88.6247,VALID,0,VALID,25.7285,VALID,348,VALID,1.03555,
2011-10-21, 02:05:04,VALID,1001.21,VALID,0,VALID,88.556,VALID,0,VALID,25.7265,VALID,346,VALID,0.78125,
2011-10-21, 02:06:04,VALID,1001.2,VALID,0,VALID,88.4874,VALID,0,VALID,25.7674,VALID,336,VALID,0.842969,
2011-10-21, 02:07:04,VALID,1001.2,VALID,0,VALID,88.5332,VALID,0,VALID,25.8064,VALID,342,VALID,0.469141,
2011-10-21, 02:08:04,VALID,1001.18,VALID,0,VALID,88.4874,VALID,0,VALID,25.746,VALID,21,VALID,0.386328,
2011-10-21, 02:09:04,VALID,1001.16,VALID,0,VALID,88.5103,VALID,0,VALID,25.7674,VALID,2,VALID,0.6,
2011-10-21, 02:10:04,VALID,1001.15,VALID,0,VALID,88.3501,VALID,0,VALID,25.7655,VALID,2,VALID,0.239063,
2011-10-21, 02:11:04,VALID,1001.14,VALID,0,VALID,88.3195,VALID,0,VALID,25.8064,VALID,12,VALID,0.660156,
2011-10-21, 02:12:04,VALID,1001.17,VALID,0,VALID,88.2738,VALID,0,VALID,25.8044,VALID,2,VALID,0.831641,
2011-10-21, 02:13:04,VALID,1001.2,VALID,0,VALID,88.4187,VALID,0,VALID,25.8044,VALID,9,VALID,0.5625,
2011-10-21, 02:14:04,VALID,1001.22,VALID,0,VALID,88.3195,VALID,0,VALID,25.8259,VALID,10,VALID,0.587109,
2011-10-21, 02:15:04,VALID,1001.23,VALID,0,VALID,88.4111,VALID,0,VALID,25.7655,VALID,10,VALID,0.227344,
2011-10-21, 02:16:04,VALID,1001.21,VALID,0,VALID,88.4645,VALID,0.0815089,VALID,25.7655,VALID,21,VALID,0.373047,
2011-10-21, 02:17:04,VALID,1001.26,VALID,0,VALID,88.4569,VALID,0,VALID,25.7655,VALID,21,VALID,0.600391,
2011-10-21, 02:18:04,VALID,1001.25,VALID,0,VALID,88.3348,VALID,0,VALID,25.785,VALID,353,VALID,0.664453,
2011-10-21, 02:19:04,VALID,1001.23,VALID,0,VALID,88.3195,VALID,0,VALID,25.785,VALID,2,VALID,0.305859,
2011-10-21, 02:20:04,VALID,1001.25,VALID,0,VALID,88.434,VALID,0,VALID,25.8044,VALID,2,VALID,0.391797,
2011-10-21, 02:21:04,VALID,1001.24,VALID,0,VALID,88.3653,VALID,0,VALID,25.7655,VALID,359,VALID,0.8,
2011-10-21, 02:22:04,VALID,1001.23,VALID,0,VALID,88.2127,VALID,0,VALID,25.7655,VALID,338,VALID,0.923047,
2011-10-21, 02:23:04,VALID,1001.22,VALID,0,VALID,88.3043,VALID,0,VALID,25.746,VALID,343,VALID,0.85625,
2011-10-21, 02:24:04,VALID,1001.23,VALID,0,VALID,88.5408,VALID,0,VALID,25.7285,VALID,351,VALID,0.580859,
2011-10-21, 02:25:04,VALID,1001.2,VALID,0,VALID,88.6552,VALID,0,VALID,25.6681,VALID,351,VALID,0.423438,
2011-10-21, 02:26:04,VALID,1001.23,VALID,0,VALID,88.8459,VALID,0,VALID,25.6077,VALID,351,VALID,0.5625,
2011-10-21, 02:27:04,VALID,1001.22,VALID,0,VALID,88.9833,VALID,0,VALID,25.6097,VALID,351,VALID,0.735547,
2011-10-21, 02:28:04,VALID,1001.23,VALID,0,VALID,89.0519,VALID,0,VALID,25.5707,VALID,352,VALID,0.304688,
2011-10-21, 02:29:04,VALID,1001.21,VALID,0,VALID,89.2732,VALID,0,VALID,25.5513,VALID,352,VALID,0.355078,
2011-10-21, 02:30:04,VALID,1001.21,VALID,0,VALID,89.4791,VALID,0,VALID,25.5123,VALID,352,VALID,0.457031,
2011-10-21, 02:31:04,VALID,1001.18,VALID,0,VALID,89.5783,VALID,0,VALID,25.4928,VALID,352,VALID,0.177344,
2011-10-21, 02:32:04,VALID,1001.18,VALID,0,VALID,89.6851,VALID,0,VALID,25.5123,VALID,352,VALID,0.524609,
2011-10-21, 02:33:04,VALID,1001.18,VALID,0,VALID,89.6622,VALID,0,VALID,25.5123,VALID,354,VALID,0.522656,
2011-10-21, 02:34:04,VALID,1001.14,VALID,0,VALID,89.502,VALID,0,VALID,25.5337,VALID,354,VALID,0.882813,
2011-10-21, 02:35:04,VALID,1001.12,VALID,0,VALID,89.5402,VALID,0,VALID,25.5318,VALID,349,VALID,0.617578,
2011-10-21, 02:36:04,VALID,1001.15,VALID,0,VALID,89.3113,VALID,0,VALID,25.5921,VALID,24,VALID,0.916406,
2011-10-21, 02:37:04,VALID,1001.12,VALID,0,VALID,88.9451,VALID,0,VALID,25.6116,VALID,12,VALID,0.515234,
2011-10-21, 02:38:04,VALID,1001.14,VALID,0,VALID,89.0595,VALID,0,VALID,25.5902,VALID,351,VALID,0.0425781,
2011-10-21, 02:39:04,VALID,1001.14,VALID,0,VALID,89.3494,VALID,0,VALID,25.5513,VALID,351,VALID,0.0347656,
2011-10-21, 02:40:04,VALID,1001.17,VALID,0,VALID,89.6699,VALID,0,VALID,25.5707,VALID,21,VALID,0.840625,
2011-10-21, 02:41:04,VALID,1001.18,VALID,0,VALID,89.4868,VALID,0,VALID,25.6486,VALID,4,VALID,0.50625,
2011-10-21, 02:42:04,VALID,1001.2,VALID,0,VALID,88.9604,VALID,0,VALID,25.7285,VALID,4,VALID,0.6625,
2011-10-21, 02:43:04,VALID,1001.17,VALID,0,VALID,88.8078,VALID,0,VALID,25.7265,VALID,4,VALID,0.587109,
2011-10-21, 02:44:04,VALID,1001.19,VALID,0,VALID,88.6628,VALID,0.0815089,VALID,25.8044,VALID,22,VALID,0.820703,
2011-10-21, 02:45:04,VALID,1001.17,VALID,0,VALID,88.3958,VALID,0,VALID,25.8629,VALID,35,VALID,0.500391,
2011-10-21, 02:46:04,VALID,1001.12,VALID,0,VALID,87.9991,VALID,0.0815089,VALID,25.9018,VALID,342,VALID,1.08047,
2011-10-21, 02:47:04,VALID,1001.12,VALID,0,VALID,87.8084,VALID,0,VALID,25.9427,VALID,345,VALID,0.298047,
2011-10-21, 02:48:04,VALID,1001.14,VALID,0,VALID,87.6482,VALID,0,VALID,25.9213,VALID,345,VALID,0.393359,
2011-10-21, 02:49:04,VALID,1001.12,VALID,0,VALID,87.7932,VALID,0,VALID,25.9213,VALID,13,VALID,0.246094,
2011-10-21, 02:50:04,VALID,1001.1,VALID,0,VALID,88.0754,VALID,0.0815089,VALID,25.9018,VALID,354,VALID,0.647656,
2011-10-21, 02:51:04,VALID,1001.08,VALID,0,VALID,88.0754,VALID,0,VALID,25.9038,VALID,5,VALID,0.43125,
2011-10-21, 02:52:04,VALID,1001.07,VALID,0,VALID,88.0373,VALID,0,VALID,25.8823,VALID,10,VALID,0.344922,
2011-10-21, 02:53:04,VALID,1001.04,VALID,0,VALID,88.0373,VALID,0,VALID,25.9213,VALID,10,VALID,0.272266,
2011-10-21, 02:54:04,VALID,1001.05,VALID,0,VALID,87.9534,VALID,0,VALID,25.8823,VALID,15,VALID,0.650781,
2011-10-21, 02:55:04,VALID,1001.05,VALID,0,VALID,88.1365,VALID,0,VALID,25.8843,VALID,33,VALID,0.744922,
2011-10-21, 02:56:04,VALID,1001.02,VALID,0,VALID,88.1517,VALID,0,VALID,25.9018,VALID,38,VALID,0.437109,
2011-10-21, 02:57:04,VALID,1001.01,VALID,0,VALID,88.022,VALID,0,VALID,25.9213,VALID,50,VALID,0,
2011-10-21, 02:58:04,VALID,1001.03,VALID,0,VALID,87.9,VALID,0,VALID,25.9232,VALID,40,VALID,0.728516,
2011-10-21, 02:59:04,VALID,1001.03,VALID,0,VALID,87.9076,VALID,0,VALID,25.9018,VALID,349,VALID,0.878125,
2011-10-21, 03:00:04,VALID,1001.01,VALID,0,VALID,87.9534,VALID,0,VALID,25.9018,VALID,7,VALID,1.16016,
2011-10-21, 03:01:04,VALID,1001.01,VALID,0,VALID,87.549,VALID,0,VALID,25.9777,VALID,34,VALID,0.728516,
2011-10-21, 03:02:04,VALID,1001.02,VALID,0,VALID,87.3736,VALID,0,VALID,25.9992,VALID,353,VALID,1.07109,
2011-10-21, 03:03:04,VALID,1001.02,VALID,0,VALID,87.2744,VALID,0,VALID,26.0187,VALID,359,VALID,1.51836,
2011-10-21, 03:04:04,VALID,1001.04,VALID,0,VALID,87.0303,VALID,0,VALID,26.0771,VALID,349,VALID,1.02852,
2011-10-21, 03:05:04,VALID,1001.05,VALID,0,VALID,87.0379,VALID,0,VALID,26.0771,VALID,15,VALID,1.25039,
2011-10-21, 03:06:04,VALID,1001.06,VALID,0,VALID,86.8701,VALID,0,VALID,26.1765,VALID,10,VALID,0.563672,
2011-10-21, 03:07:04,VALID,1001.05,VALID,0,VALID,86.7099,VALID,0,VALID,26.155,VALID,14,VALID,0.542969,
2011-10-21, 03:08:04,VALID,1001.05,VALID,0,VALID,86.8243,VALID,0.0815089,VALID,26.1355,VALID,43,VALID,0.787109,
2011-10-21, 03:09:04,VALID,1001.01,VALID,0,VALID,86.8167,VALID,0,VALID,26.116,VALID,356,VALID,0.616016,
2011-10-21, 03:10:04,VALID,1001,VALID,0,VALID,86.8395,VALID,0,VALID,26.116,VALID,1,VALID,1.04414,
2011-10-21, 03:11:04,VALID,1000.99,VALID,0,VALID,86.8853,VALID,0,VALID,26.116,VALID,2,VALID,1.075,
2011-10-21, 03:12:04,VALID,1001.04,VALID,0,VALID,86.7556,VALID,0,VALID,26.1355,VALID,357,VALID,0.8375,
2011-10-21, 03:13:04,VALID,1001.05,VALID,0,VALID,86.7556,VALID,0.0815089,VALID,26.155,VALID,12,VALID,1.53242,
2011-10-21, 03:14:04,VALID,1001.06,VALID,0,VALID,86.3666,VALID,0,VALID,26.2134,VALID,23,VALID,1.22891,
2011-10-21, 03:15:04,VALID,1001.08,VALID,0,VALID,86.1835,VALID,0,VALID,26.2329,VALID,358,VALID,1.28047,
2011-10-21, 03:16:04,VALID,1001.12,VALID,0,VALID,86.1224,VALID,0,VALID,26.2329,VALID,348,VALID,1.22891,
2011-10-21, 03:17:04,VALID,1001.12,VALID,0,VALID,86.3971,VALID,0,VALID,26.2134,VALID,21,VALID,0.948438,
2011-10-21, 03:18:04,VALID,1001.12,VALID,0,VALID,86.4428,VALID,0,VALID,26.194,VALID,356,VALID,0.6625,
2011-10-21, 03:19:04,VALID,1001.16,VALID,0,VALID,86.214,VALID,0,VALID,26.2134,VALID,344,VALID,0.762109,
2011-10-21, 03:20:04,VALID,1001.16,VALID,0,VALID,86.2903,VALID,0,VALID,26.194,VALID,356,VALID,0.396484,
2011-10-21, 03:21:04,VALID,1001.14,VALID,0,VALID,86.4047,VALID,0,VALID,26.157,VALID,355,VALID,0.722656,
2011-10-21, 03:22:04,VALID,1001.16,VALID,0,VALID,86.6336,VALID,0,VALID,26.116,VALID,359,VALID,0.500781,
2011-10-21, 03:23:04,VALID,1001.17,VALID,0,VALID,86.9616,VALID,0,VALID,26.0596,VALID,359,VALID,0.500781,
2011-10-21, 03:24:04,VALID,1001.2,VALID,0,VALID,87.3125,VALID,0,VALID,26.0012,VALID,357,VALID,0.857422,
2011-10-21, 03:25:04,VALID,1001.19,VALID,0,VALID,87.2591,VALID,0,VALID,25.9817,VALID,355,VALID,0.461719,
2011-10-21, 03:26:05,VALID,1001.21,VALID,0,VALID,87.221,VALID,0,VALID,25.9408,VALID,8,VALID,0.140625,
2011-10-21, 03:27:05,VALID,1001.23,VALID,0,VALID,87.4499,VALID,0,VALID,25.9427,VALID,8,VALID,0.0289063,
2011-10-21, 03:28:05,VALID,1001.23,VALID,0,VALID,87.5185,VALID,0,VALID,25.9622,VALID,7,VALID,0.483594,
2011-10-21, 03:29:05,VALID,1001.22,VALID,0,VALID,87.5033,VALID,0,VALID,25.9817,VALID,8,VALID,0,
2011-10-21, 03:30:05,VALID,1001.24,VALID,0,VALID,87.8389,VALID,0,VALID,26.0012,VALID,8,VALID,0.0703125,
2011-10-21, 03:31:05,VALID,1001.22,VALID,0,VALID,87.7169,VALID,0,VALID,25.9622,VALID,8,VALID,0.0214844,
2011-10-21, 03:32:05,VALID,1001.26,VALID,0,VALID,87.5414,VALID,0,VALID,25.9602,VALID,8,VALID,0,
2011-10-21, 03:33:05,VALID,1001.3,VALID,0,VALID,87.3888,VALID,0,VALID,26.0012,VALID,8,VALID,0.107813,
2011-10-21, 03:34:05,VALID,1001.34,VALID,0,VALID,87.7245,VALID,0,VALID,25.9797,VALID,8,VALID,0.358984,
2011-10-21, 03:35:05,VALID,1001.32,VALID,0,VALID,87.9381,VALID,0,VALID,25.9427,VALID,8,VALID,0.00117188,
2011-10-21, 03:36:05,VALID,1001.32,VALID,0,VALID,88.1899,VALID,0,VALID,25.9018,VALID,8,VALID,0.214453,
2011-10-21, 03:37:05,VALID,1001.32,VALID,0,VALID,88.4874,VALID,0,VALID,25.8629,VALID,8,VALID,0.255469,
2011-10-21, 03:38:05,VALID,1001.33,VALID,0,VALID,88.7162,VALID,0,VALID,25.785,VALID,8,VALID,0.146875,
2011-10-21, 03:39:05,VALID,1001.35,VALID,0,VALID,89.2426,VALID,0,VALID,25.7071,VALID,63,VALID,0.729688,
2011-10-21, 03:40:05,VALID,1001.38,VALID,0,VALID,89.5936,VALID,0,VALID,25.6895,VALID,44,VALID,0.446875,
2011-10-21, 03:41:05,VALID,1001.34,VALID,0,VALID,89.8148,VALID,0,VALID,25.6292,VALID,14,VALID,0.607031,
2011-10-21, 03:42:05,VALID,1001.35,VALID,0,VALID,89.8377,VALID,0,VALID,25.6097,VALID,15,VALID,0.339453,
2011-10-21, 03:43:05,VALID,1001.41,VALID,0,VALID,89.3266,VALID,0,VALID,25.6681,VALID,82,VALID,1.17188,
2011-10-21, 03:44:05,VALID,1001.33,VALID,0.5,VALID,89.5554,VALID,0,VALID,25.746,VALID,91,VALID,0.202344,
2011-10-21, 03:45:05,VALID,1001.37,VALID,0,VALID,89.8682,VALID,0,VALID,25.7869,VALID,91,VALID,0.0898438,